Regional Weather Roundup
Issued by NWS

Home | Current Version | Previous Version | Graphics & Text | Print | Product List | Glossary Off
Versions: 1 2 3 4 5 6 7 8 9 10 11 12 13 14 15 16 17 18 19 20 21 22 23 24 25 26 27 28 29 30 31 32 33 34 35 36 37 38 39 40 41 42 43 44 45 46 47 48 49 50

000
ASUS43 KDMX 290807
RWRIA

WEATHER ROUNDUP FOR IOWA
NATIONAL WEATHER SERVICE DES MOINES IA
300 AM CDT FRI MAY 29 2015

NOTE: "FAIR" INDICATES FEW OR NO CLOUDS BELOW 12,000 FEET WITH NO
SIGNIFICANT WEATHER AND/OR OBSTRUCTIONS TO VISIBILITY.

* - THESE STATIONS ARE NOT NWS STATIONS...THUS NOT UNDER NWS
QUALITY CONTROL.  THEY ALSO DO NOT REPORT WEATHER SUCH
AS PRECIPITATION OR FOG.

IAZ001>003-012>014-020>022-031>034-043>046-290900-
   NORTHWEST IOWA

CITY           SKY/WX    TMP DP  RH WIND       PRES   REMARKS
CARROLL *      MOCLDY    64  63  94 SW9       29.93R
CHEROKEE *     MOCLDY    64  64 100 S9        29.89S
DENISON *      CLOUDY    66  66 100 S13G22    29.90S
LE MARS *      MOCLDY    66  64  94 S16       29.87F
ORANGE CITY *  PTCLDY    64  61  88 S13       29.87S
SHELDON *      CLOUDY    64  64 100 S13       29.86F
SIOUX CITY     LGT RAIN  67  63  87 S12       29.87F
SPENCER        MOCLDY    65  63  93 S12       29.89F
STORM LAKE *   CLOUDY    64  63  94 S13       29.91F
$$

IAZ055>058-069>071-079>083-090>094-290900-
   SOUTHWEST IOWA

CITY           SKY/WX    TMP DP  RH WIND       PRES   REMARKS
ATLANTIC *     CLOUDY    64  64 100 S8        29.93F
AUDUBON *      CLEAR     64  61  88 S7        29.94F
CLARINDA *     CLEAR     64  64 100 S7        29.95F
COUNCIL BLFS * CLOUDY    66  66 100 S13       29.92F
CRESTON *      MOCLDY    63  63 100 S10       29.95F
HARLAN  *      CLOUDY    64  64 100 S6        29.96S
LAMONI         MOCLDY    65  62  90 S3        29.95F
RED OAK *      CLOUDY    66  64  94 S9        29.93F
SHENANDOAH *   CLOUDY    66  64  94 S6G12     29.93F
$$

IAZ047>049-059>061-072>074-084-290900-
   CENTRAL IOWA

CITY           SKY/WX    TMP DP  RH WIND       PRES   REMARKS
AMES           MOCLDY    62  60  93 SE5       29.94F
ANKENY *       CLEAR     63  63 100 S5        29.95S
CHARITON *       N/A     64  63  94 S8        29.95F
DES MOINES     MOCLDY    64  61  90 S5        29.95S
GRINNELL*      MOCLDY    64  63  94 S7        29.97F
KNOXVILLE *    CLOUDY    64  63  94 SE7       29.94F
MARSHALLTOWN   MOCLDY    65  62  90 S8        29.95F
PELLA *        CLOUDY    64  64 100 SE5       29.96F
PERRY *          N/A     63  63 100 S9        29.94F FOG
$$

IAZ004>006-015-016-023>025-035-036-290900-
   NORTH CENTRAL IOWA

CITY           SKY/WX    TMP DP  RH WIND       PRES   REMARKS
ALGONA *       MOCLDY    66  64  94 S15       29.92S
CLARION *      CLOUDY    64  63  94 S12       29.93S
ESTHERVILLE    MOCLDY    65  63  93 S13       29.89F
FORT DODGE *   MOCLDY    64  61  88 S9G18     29.93S
MASON CITY     CLOUDY    65  62  90 S9        29.94F
FOREST CITY *  CLOUDY    64  63  94 S7        29.92S
IOWA FALLS *   CLOUDY    64  63  94 S8        29.96S
$$

IAZ007>011-017>019-026>030-037>042-050>054-066-290900-
   NORTHEAST IOWA

CITY           SKY/WX    TMP DP  RH WIND       PRES   REMARKS
CEDAR RAPIDS   LGT RAIN  65  63  93 S7        29.98S
CHARLES CITY * CLOUDY    64  64 100 S12       29.96S
CLINTON *      CLOUDY    64  59  82 E3        30.03F
DECORAH *      CLOUDY    64  61  88 S6        29.97S
DUBUQUE        CLOUDY    64  61  90 S6        30.00F
MONTICELLO *   CLOUDY    64  64 100 SE6       29.99F
OELWEIN *      CLOUDY    64  63  94 S8        29.98S
WATERLOO       CLOUDY    65  62  90 S8        29.96S
$$

IAZ064-065-067-068-078-290900-
   EAST CENTRAL IOWA

CITY           SKY/WX    TMP DP  RH WIND       PRES   REMARKS
DAVENPORT      LGT RAIN  67  62  84 SE6       30.01S
IOWA CITY      CLOUDY    65  62  90 S5        30.00F
MT. PLEASANT * CLOUDY    64  64 100 E3        29.98F
MUSCATINE *    MOCLDY    66  63  88 CALM      29.99F
QUAD CITIES    CLOUDY    66  61  84 E5        29.99F
$$

IAZ062-063-075>077-085>089-095>099-290900-
   SOUTHEAST IOWA

CITY           SKY/WX    TMP DP  RH WIND       PRES   REMARKS
BURLINGTON     CLOUDY    68  64  87 SE5       29.98F
FAIRFIELD *    DRIZZLE   64  63  94 SE6       29.98F
FORT MADISON * CLEAR     66  64  94 SE7       29.99F
KEOKUK *       PTCLDY    68  66  94 SE5       29.97F
OSKALOOSA *    DRIZZLE   64  63  94 SE9       29.98F
CENTERVILLE *    N/A     64  64 100 CALM      29.99F
OTTUMWA        LGT RAIN  64  63  96 CALM      29.98R
WASHINGTON *   CLOUDY    64  63  94 S5        30.00F
$$

ABBREVIATIONS USED IN REMARKS
   TC - TEMPERATURES IN CELSIUS
  WCI - WIND CHILL INDEX
   HX - HEAT INDEX
  VSB - VISIBILITY
$$



USA.gov is the U.S. government's official web portal to all federal, state and local government web resources and services.